Showing default

MIDAS 5 (STRONGBACK), 271

Orbit data source: Space-Track

MIDAS 5 (STRONGBACK), 271 is a payload satellite owned by USAF SSD (US) in LEO that was launched on Mon, 09 Apr 1962 UTC via an ATLAS AGENA B launch vehicle from the Air Force Western Test Range (AFWTR). Payload-class satellites include a variety of spacecraft equipped with specific instruments for various scientific and technological missions. These include communications satellites like Starlink; space stations such as the ISS; scientific satellites like the Hubble; Earth observation satellites from companies like Planet Labs, Umbra, and HawkEye 360; GPS; miniature CubeSats for education and research; and military/defense satellites.

Loading next visibility...
Identifier
271, 1962-010A
Orbit
LEO
Country
Flag of USUS
Related business
Manufacturer
LMSC
Mission
Spacecraft
Bus & Motor
MIDAS, Unknown motor
Mass
~1,543 kg wet, ~840 kg dry
Launch date (UTC)
1962-04-09 (64 years ago)
Launch vehicle
ATLAS AGENA B
Launch site
Air Force Western Test Range (AFWTR)
Object type
Payload
Rocket body
Debris
Shape & HBR
CONE, 1.1 m
Radar Cross Section
Large (>1 m²)

Expand to show TLE details & history
Last TLE update: 11 hours ago

TLE from 11 hours ago
0 MIDAS 5 (STRONGBACK)
1 00271U 62010A   26254.39770158  .00000025  00000-0  44077-2 0  9999
2 00271  86.6577 303.3427 0326904 283.7794  72.6934  9.41308664213780
Epoch: 2026-09-11T09:32Z
TLE epoch observation values (Epoch: 2026-09-11T09:32:41.416Z)
Latitude
-0.00003°
Longitude
169.74849°
Altitude
3,016.408 km
Speed
6.543 km/s
True Right ascension
20h 13m 22s
True Declination
0° 00' 00"
Sunlit
Object was in daylight at epoch
Visualization orbit readout
Latitude
Unknown
Longitude
Unknown
Altitude
Unknown
Speed
Unknown
Apparent Right ascension
Unknown
Apparent Declination
Unknown
Sunlit
N/A
Visualization observer readout
Local Sidereal Time
13:17:13
Azimuth
Unknown
Elevation
Unknown
Doppler factor
Unknown
Orbital elements
Apogee altitude
3,404.26 km
Perigee altitude
2,784.925 km
Semi-major axis
9,472.729 km
Eccentricity
0.03269
Inclination
86.6577°
RAAN
303.3427°
Arg. of periapsis
283.7794°
True anomaly
76.31143°
Mean anomaly
72.6934°
Eccentric anomaly
74.49829°
Mean motion
2.35413 °/min
Orbital period
152.92 mins
BSTAR
0.0044077
Loading maneuver chart data...
Computing Atmospheric mass density...
Loading historical data...
Loading historical data...
Loading historical data...
Loading historical data...
Loading historical data...
Loading historical data...
Loading historical data...

Documentation

Showing up to 5 results
|